SCP
0 0 0 0 0 0 0 0 0 0 0 0 0 0 0 0 0 0 0 0 0 0 0 0 0 0 0 0 0 0 0 0 0 0 0 0 0 0 0 0 0 0 0 0
0 0 0 0 0 0 0 0 0 0 0 0 0 -0 0 0 0 0 0 0 0 0 0 0 0 0 0 0 0 0 0 0 0 0 0 0 0 0 0 0 0 0 0 0
0 0 0 0 0 0 0 0 0 0 0 0 0 0 0 0 0 0 0 0 0 0 0 0 0 0 0 0 0 0 0 0 0 0 0 -0 0 0 0 0 0 0 0 0
0 0 0 0 0 0 0 0 0 0 0 0 0 0 0 0 0 0 0 0 0 0 0 0 0 0 0 0 0 0 0 0 0 0 0 -0 0 0 0 0 0 0 0 0
0 0 0 0 0 0 0 0 0 0 0 0 0 0 0 0 0 0 0 0 0 0 0 0 0 0 0 0 0 0 0 0 0 0 0 -0 -0 -0 -0 0 0 0 0 0
0 0 0 0 0 0 0 0 0 0 0 0 0 0 0 0 0 0 0 0 0 0 0 0 0 0 0 0 0 0 0 0 0 0 0 -0 -0 -0 -0 -0 0 0 0 0
0 0 0 0 0 0 0 0 0 0 0 0 0 0 0 0 0 0 0 0 0 0 0 0 0 0 0 0 0 0 0 0 0 0 0 -0 -0 -0 -0 0 0 0 0 0
0 0 0 0 0 0 0 0 0 0 0 0 0 0 0 0 0 0 0 0 0 0 0 0 0 0 0 0 0 0 0 0 0 0 0 -0 -0 -0 -0 0 0 0 0 0
0 0 0 0 0 0 0 0 0 0 0 0 0 0 0 0 -0 -0 -0 -0 -0 0 0 0 0 0 0 0 0 0 0 0 0 0 0 -0 -0 -0 -0 0 0 0 0 0
0 0 0 0 0 0 0 0 0 0 0 0 0 0 0 0 0 -0 -0 -0 -0 0 0 0 0 0 0 0 0 0 0 0 0 0 0 -0 -0 -0 0 -0 0 0 0 0
0 0 0 0 0 0 0 0 0 0 0 0 0 0 0 0 0 0 -0 -0 -0 0 0 0 0 0 0 0 0 0 0 0 0 0 0 -0 -0 -0 -0 0 0 0 0 0
0 0 0 0 0 0 0 0 0 0 0 0 0 0 0 0 0 0 -0 -0 0 0 0 0 0 0 0 0 0 0 0 0 0 0 -0 -0 -0 -0 -0 0 0 0 0 0
0 0 0 0 0 0 0 0 0 0 0 0 0 0 0 0 0 0 0 0 0 0 0 0 0 0 0 0 0 0 0 0 0 0 0 -0 -0 -0 -0 0 0 0 0 0
0 0 0 0 0 0 0 0 0 0 0 0 0 0 0 0 0 0 0 0 -0 -0 0 0 0 0 0 0 0 0 0 0 0 0 0 0 0 0 -0 0 0 0 0 0
0 0 0 0 0 0 0 0 0 0 0 0 0 0 0 0 0 0 0 0 0 -0 0 0 0 0 0 0 0 0 0 0 0 0 0 0 0 0 0 -0 -0 0 0 0
0 0 0 0 0 0 0 0 0 0 0 0 0 -0 0 0 0 0 0 0 0 -0 -0 0 0 0 0 0 0 0 0 0 0 0 0 0 0 0 0 0 0 0 0 0
0 0 0 0 0 0 0 0 0 0 0 0 0 -0 0 0 0 0 0 0 0 0 0 0 0 0 0 0 0 0 0 0 0 0 0 0 0 0 0 0 -0 0 0 0
0 0 0 0 0 0 0 0 0 0 0 0 0 0 0 0 0 0 0 0 0 0 -0 0 0 0 0 0 0 0 0 0 0 -0 0 0 0 -0 0 0 0 0 0 -0
0 0 0 0 0 0 0 0 0 0 0 0 0 0 0 0 0 0 0 0 0 0 0 0 0 0 0 0 0 0 0 0 0 -0 -0 -0 0 -0 -0 -0 0 0 0 0
0 0 0 0 0 0 0 0 0 0 0 0 0 0 0 0 0 0 0 0 0 0 0 0 0 0 0 0 0 0 0 0 -0 -0 -0 -0 -0 -0 -0 -0 -0 -0 -0 0
0 0 0 0 0 0 0 0 0 0 0 0 0 0 0 0 0 0 0 0 0 0 0 0 0 0 0 0 0 0 0 0 0 0 0 -0 -0 -0 -0 -0 -0 0 0 0
0 0 0 0 0 0 0 0 0 0 0 0 0 0 0 0 0 0 0 0 0 0 0 0 0 0 0 0 0 0 0 0 0 0 0 0 0 -0 -0 -0 -0 -0 -0 -0
0 0 0 0 0 0 0 0 0 0 0 0 0 0 0 0 0 0 0 0 0 0 0 0 0 0 0 0 0 0 0 0 0 0 0 0 0 0 0 0 0 0 0 -0
0 0 0 0 0 0 0 0 0 0 0 0 0 0 0 0 0 0 0 0 0 0 0 0 0 0 0 0 0 0 0 0 0 0 0 0 0 0 0 0 0 0 0 0
0 0 0 0 0 0 0 0 0 0 0 0 0 0 0 0 0 0 0 0 0 0 0 0 0 0 0 0 0 0 0 0 0 0 0 0 0 0 0 0 0 0 0 0
0 0 0 0 0 0 0 0 0 0 0 0 0 0 0 0 0 0 0 0 0 0 0 0 0 0 0 0 0 0 0 0 0 0 0 0 0 0 0 0 0 0 0 0
Wind_Speed_500mb
7 9 3 4 0 5 8 4 6 7 6 9 10 23 35 42 28 38 43 34 27 15 11 14 19 22 21 24 27 31 36 39 41 38 36 30 23 23 21 25 22 25 26 30
8 2 5 4 2 5 3 1 7 9 4 6 13 40 21 10 11 10 15 18 18 13 11 14 17 19 20 22 24 29 35 39 36 34 31 33 25 16 12 15 18 24 26 31
8 4 5 5 5 3 0 4 2 4 16 2 15 14 11 4 8 7 6 12 15 14 14 16 16 17 18 18 23 29 33 34 32 31 28 24 19 8 1 14 18 20 26 30
7 2 5 5 4 1 5 2 4 4 10 6 9 9 9 9 17 8 11 18 22 20 16 18 18 18 17 16 21 26 30 30 27 26 26 24 17 1 1 12 17 15 23 22
6 8 5 5 5 2 3 1 2 4 3 5 8 5 14 9 8 8 13 14 12 13 12 16 17 17 18 16 19 23 26 27 24 24 23 20 11 4 4 11 16 15 13 15
5 2 4 4 4 5 7 3 7 7 5 6 5 6 10 5 6 10 8 17 13 12 13 15 18 17 18 16 18 19 23 23 23 23 20 17 9 1 3 13 15 11 5 8
6 1 2 1 5 3 3 3 7 11 9 8 2 4 17 9 8 9 15 22 16 15 15 16 18 18 18 16 17 18 18 18 18 20 18 13 7 6 7 11 14 11 7 8
11 8 2 4 3 4 3 4 9 9 2 10 3 11 8 9 13 18 20 20 19 14 17 17 16 16 16 15 15 16 14 16 15 18 16 12 7 8 7 7 8 7 4 6
9 2 5 6 3 4 4 2 5 13 3 6 6 14 16 8 17 19 26 23 20 16 15 15 15 14 13 13 12 12 11 12 14 16 15 14 10 7 9 3 3 4 5 7
10 8 4 3 1 6 2 9 7 6 1 7 9 12 9 8 10 10 16 27 18 16 13 14 16 12 10 10 9 9 9 11 13 15 14 13 10 9 6 3 3 8 8 10
9 7 7 3 7 12 2 2 7 5 6 9 2 12 14 14 14 14 17 21 20 17 16 14 14 12 10 7 6 5 6 9 12 15 16 16 13 8 4 3 7 8 9 13
13 10 7 9 3 3 3 6 8 7 8 2 5 14 3 13 10 13 25 22 22 19 18 17 14 13 10 7 3 2 6 8 12 16 15 16 15 10 4 6 8 6 9 11
16 1 6 10 5 7 7 9 7 9 5 11 10 12 6 10 14 21 30 31 36 32 28 24 21 15 11 9 2 3 6 8 11 15 17 15 13 10 2 7 12 13 13 14
14 6 12 13 10 11 7 9 10 10 7 8 13 18 17 15 14 24 34 51 49 36 30 35 30 21 14 11 5 5 7 8 11 14 17 17 16 13 3 10 11 13 16 20
6 11 7 5 7 5 9 10 17 16 12 13 10 20 37 12 15 31 52 39 39 32 25 26 32 28 18 14 11 10 9 9 11 16 17 18 21 19 17 14 16 16 16 23
3 6 6 4 7 9 3 8 16 13 7 19 16 41 28 58 43 39 37 41 46 38 30 22 24 33 24 17 15 14 11 9 12 15 18 20 24 23 21 21 24 21 21 22
15 13 7 8 3 5 6 18 26 11 11 20 17 39 13 13 13 26 39 47 51 39 28 19 26 33 25 18 16 16 13 10 12 16 18 23 24 25 24 26 24 28 28 27
14 11 5 6 3 6 13 7 12 26 17 30 25 29 34 24 33 49 55 44 39 31 22 11 25 34 29 25 22 21 18 13 12 16 18 20 24 26 25 26 25 25 29 24
5 8 6 10 8 10 7 9 15 16 21 30 42 41 32 26 28 28 8 19 26 16 18 14 25 30 29 24 23 23 21 18 15 16 18 20 21 23 24 26 27 23 23 21
7 6 6 6 9 16 13 5 15 10 12 12 26 15 11 6 2 7 7 20 23 13 21 20 28 32 31 30 25 24 21 18 16 15 16 18 20 21 21 20 19 21 24 22
7 2 16 12 11 12 10 16 22 11 13 10 18 17 20 9 10 13 22 20 17 16 23 25 27 27 28 29 27 26 24 19 18 18 17 16 16 17 17 19 18 18 20 19
18 20 13 6 14 31 24 15 19 12 10 15 13 15 17 9 8 16 11 11 11 14 25 27 28 28 29 29 29 28 23 25 21 18 18 18 18 15 14 14 15 16 16 16
16 15 16 25 13 7 71 27 50 18 12 10 16 18 9 3 5 13 14 15 13 9 26 25 27 27 29 29 27 25 25 26 22 20 17 15 15 15 14 15 15 14 14 14
9 6 7 7 10 13 49 66 45 47 35 30 24 20 13 10 6 4 12 15 9 7 24 24 26 26 27 28 27 24 29 27 24 22 20 18 15 15 14 14 14 14 14 16
11 25 13 8 6 7 37 53 59 52 39 31 26 22 20 14 17 17 9 9 8 8 18 22 23 21 21 26 27 29 35 31 28 26 25 22 21 20 18 16 16 16 18 20
17 13 15 18 34 27 21 58 61 51 45 47 47 36 36 41 35 26 18 13 13 15 17 20 24 23 23 26 29 32 35 33 30 29 28 24 23 22 21 20 20 18 18 19
Wind_Direction_500mb
20 72 224 187 134 124 130 161 262 273 48 325 252 277 283 288 265 264 268 272 272 279 306 326 334 334 323 299 301 308 318 323 323 326 321 319 308 284 270 258 243 244 251 259
27 178 160 129 66 109 100 150 291 282 41 2 329 296 281 293 274 270 272 257 258 267 297 314 329 334 322 304 302 315 323 326 329 329 327 327 326 301 271 268 256 251 243 250
156 163 154 142 52 111 174 198 190 223 326 197 311 295 343 315 333 317 267 255 259 269 287 302 319 333 325 312 309 320 326 329 335 333 331 326 322 313 308 270 263 254 252 256
94 189 171 119 111 117 254 163 112 42 28 291 6 278 314 338 314 295 291 260 262 267 279 297 314 329 328 312 310 320 332 336 337 338 342 337 343 4 348 287 289 271 252 271
205 166 167 136 129 91 285 344 65 79 58 347 351 70 272 354 317 303 342 342 285 269 278 296 312 323 323 319 314 326 339 341 345 345 353 344 342 352 30 288 304 293 266 275
91 25 17 107 112 98 142 119 43 56 66 25 282 115 287 241 237 307 328 336 314 302 303 308 315 324 325 320 321 335 344 346 349 350 359 359 333 231 311 308 317 302 302 297
4 47 17 67 104 59 130 56 344 357 12 219 351 352 246 256 253 237 281 311 318 310 311 313 317 322 321 317 324 341 353 347 351 349 359 2 318 299 299 302 323 322 249 14
147 297 161 10 1 167 161 160 146 214 276 276 65 240 244 213 272 271 273 290 299 305 308 315 314 320 319 316 331 346 2 351 359 349 357 347 338 306 307 339 336 342 102 5
134 318 318 49 23 73 209 65 139 103 54 38 263 283 302 269 275 267 273 280 280 287 298 307 313 314 316 317 327 354 10 5 8 2 3 359 355 328 309 342 1 30 91 104
190 87 312 358 97 36 55 149 77 9 43 300 293 285 243 254 239 263 267 264 279 280 279 304 312 313 311 310 328 5 20 18 3 1 360 355 2 331 316 299 17 31 68 96
136 105 288 18 209 176 104 33 51 110 126 173 277 274 216 220 211 226 254 273 284 284 277 287 305 308 310 309 334 21 32 24 13 359 5 12 14 13 345 11 41 43 91 115
190 121 135 210 256 324 313 210 168 128 241 69 139 272 275 247 278 278 275 284 289 286 285 277 287 297 300 304 330 60 78 26 11 14 34 13 6 9 48 88 111 92 94 133
180 284 73 350 11 359 224 197 150 103 81 204 143 263 347 296 280 264 274 289 297 292 282 274 270 284 284 287 270 117 100 60 19 27 50 36 18 359 31 112 125 116 96 120
135 102 158 184 180 127 174 198 174 140 128 191 224 274 291 270 270 277 284 297 300 294 282 262 257 260 267 262 220 154 120 85 48 51 61 43 32 27 53 119 125 114 102 126
145 178 109 314 28 132 161 166 176 191 193 180 250 228 262 250 230 276 298 297 303 299 305 273 249 238 250 246 209 165 141 101 68 79 76 61 61 58 77 109 126 107 111 117
181 170 121 3 5 42 271 197 194 227 250 271 279 277 269 272 272 279 287 298 295 293 304 293 230 218 226 224 203 172 150 127 96 93 97 79 72 70 84 107 119 117 109 106
149 140 115 239 17 86 334 226 192 195 213 207 218 248 277 258 238 265 292 295 292 286 290 291 219 196 206 207 193 174 163 141 119 107 103 101 86 79 77 99 114 127 115 102
149 124 93 152 31 269 229 140 172 203 237 212 258 260 256 266 282 291 294 291 296 269 257 257 182 178 190 197 186 182 173 157 143 127 127 114 111 102 92 89 108 124 133 119
70 146 123 146 208 313 271 199 170 171 271 204 225 252 269 277 297 297 260 313 316 258 210 201 183 183 191 192 189 182 177 171 162 144 136 136 123 120 113 113 110 103 106 128
107 80 125 132 196 212 236 156 158 145 290 213 195 238 230 208 125 260 293 323 335 211 194 187 182 186 191 191 190 189 183 177 167 159 154 149 150 145 138 134 129 129 138 139
126 63 198 184 226 270 228 152 157 101 236 163 191 208 169 179 231 301 305 315 326 200 191 187 186 195 194 195 193 190 188 176 182 176 170 166 161 158 159 161 162 157 148 147
159 162 193 171 219 245 148 129 177 206 141 162 171 185 190 237 310 336 311 312 331 204 198 191 193 193 198 200 200 196 187 189 192 190 186 182 182 180 176 180 180 185 189 195
202 197 187 191 211 160 177 206 203 195 164 188 195 181 189 252 9 3 358 299 303 223 198 198 196 198 202 205 206 205 186 202 200 200 199 198 199 200 201 202 210 214 212 219
251 214 181 111 202 208 194 216 229 221 233 250 231 205 239 240 212 344 354 339 284 258 200 197 202 205 210 210 206 195 204 213 209 203 203 204 206 213 217 221 229 235 239 244
178 153 168 280 283 270 233 229 236 234 229 220 207 229 232 259 267 280 290 309 278 240 202 199 201 212 222 219 211 205 212 216 213 214 214 210 210 214 218 223 228 230 239 247
185 166 184 218 190 203 214 230 242 236 224 229 230 226 251 257 268 269 272 256 245 230 212 208 210 208 211 218 212 213 220 225 224 225 227 227 227 229 230 233 236 239 247 257
Wind_Speed_850mb
7 9 3 4 0 5 8 4 6 7 6 9 10 23 35 42 28 38 43 34 27 15 11 14 19 22 21 24 27 31 36 39 41 38 36 30 23 23 21 25 22 25 26 30
8 2 5 4 2 5 3 1 7 9 4 6 13 40 21 10 11 10 15 18 18 13 11 14 17 19 20 22 24 29 35 39 36 34 31 33 25 16 12 15 18 24 26 31
8 4 5 5 5 3 0 4 2 4 16 2 15 14 11 4 8 7 6 12 15 14 14 16 16 17 18 18 23 29 33 34 32 31 28 24 19 8 1 14 18 20 26 30
7 2 5 5 4 1 5 2 4 4 10 6 9 9 9 9 17 8 11 18 22 20 16 18 18 18 17 16 21 26 30 30 27 26 26 24 17 1 1 12 17 15 23 22
6 8 5 5 5 2 3 1 2 4 3 5 8 5 14 9 8 8 13 14 12 13 12 16 17 17 18 16 19 23 26 27 24 24 23 20 11 4 4 11 16 15 13 15
5 2 4 4 4 5 7 3 7 7 5 6 5 6 10 5 6 10 8 17 13 12 13 15 18 17 18 16 18 19 23 23 23 23 20 17 9 1 3 13 15 11 5 8
6 1 2 1 5 3 3 3 7 11 9 8 2 4 17 9 8 9 15 22 16 15 15 16 18 18 18 16 17 18 18 18 18 20 18 13 7 6 7 11 14 11 7 8
11 8 2 4 3 4 3 4 9 9 2 10 3 11 8 9 13 18 20 20 19 14 17 17 16 16 16 15 15 16 14 16 15 18 16 12 7 8 7 7 8 7 4 6
9 2 5 6 3 4 4 2 5 13 3 6 6 14 16 8 17 19 26 23 20 16 15 15 15 14 13 13 12 12 11 12 14 16 15 14 10 7 9 3 3 4 5 7
10 8 4 3 1 6 2 9 7 6 1 7 9 12 9 8 10 10 16 27 18 16 13 14 16 12 10 10 9 9 9 11 13 15 14 13 10 9 6 3 3 8 8 10
9 7 7 3 7 12 2 2 7 5 6 9 2 12 14 14 14 14 17 21 20 17 16 14 14 12 10 7 6 5 6 9 12 15 16 16 13 8 4 3 7 8 9 13
13 10 7 9 3 3 3 6 8 7 8 2 5 14 3 13 10 13 25 22 22 19 18 17 14 13 10 7 3 2 6 8 12 16 15 16 15 10 4 6 8 6 9 11
16 1 6 10 5 7 7 9 7 9 5 11 10 12 6 10 14 21 30 31 36 32 28 24 21 15 11 9 2 3 6 8 11 15 17 15 13 10 2 7 12 13 13 14
14 6 12 13 10 11 7 9 10 10 7 8 13 18 17 15 14 24 34 51 49 36 30 35 30 21 14 11 5 5 7 8 11 14 17 17 16 13 3 10 11 13 16 20
6 11 7 5 7 5 9 10 17 16 12 13 10 20 37 12 15 31 52 39 39 32 25 26 32 28 18 14 11 10 9 9 11 16 17 18 21 19 17 14 16 16 16 23
3 6 6 4 7 9 3 8 16 13 7 19 16 41 28 58 43 39 37 41 46 38 30 22 24 33 24 17 15 14 11 9 12 15 18 20 24 23 21 21 24 21 21 22
15 13 7 8 3 5 6 18 26 11 11 20 17 39 13 13 13 26 39 47 51 39 28 19 26 33 25 18 16 16 13 10 12 16 18 23 24 25 24 26 24 28 28 27
14 11 5 6 3 6 13 7 12 26 17 30 25 29 34 24 33 49 55 44 39 31 22 11 25 34 29 25 22 21 18 13 12 16 18 20 24 26 25 26 25 25 29 24
5 8 6 10 8 10 7 9 15 16 21 30 42 41 32 26 28 28 8 19 26 16 18 14 25 30 29 24 23 23 21 18 15 16 18 20 21 23 24 26 27 23 23 21
7 6 6 6 9 16 13 5 15 10 12 12 26 15 11 6 2 7 7 20 23 13 21 20 28 32 31 30 25 24 21 18 16 15 16 18 20 21 21 20 19 21 24 22
7 2 16 12 11 12 10 16 22 11 13 10 18 17 20 9 10 13 22 20 17 16 23 25 27 27 28 29 27 26 24 19 18 18 17 16 16 17 17 19 18 18 20 19
18 20 13 6 14 31 24 15 19 12 10 15 13 15 17 9 8 16 11 11 11 14 25 27 28 28 29 29 29 28 23 25 21 18 18 18 18 15 14 14 15 16 16 16
16 15 16 25 13 7 71 27 50 18 12 10 16 18 9 3 5 13 14 15 13 9 26 25 27 27 29 29 27 25 25 26 22 20 17 15 15 15 14 15 15 14 14 14
9 6 7 7 10 13 49 66 45 47 35 30 24 20 13 10 6 4 12 15 9 7 24 24 26 26 27 28 27 24 29 27 24 22 20 18 15 15 14 14 14 14 14 16
11 25 13 8 6 7 37 53 59 52 39 31 26 22 20 14 17 17 9 9 8 8 18 22 23 21 21 26 27 29 35 31 28 26 25 22 21 20 18 16 16 16 18 20
17 13 15 18 34 27 21 58 61 51 45 47 47 36 36 41 35 26 18 13 13 15 17 20 24 23 23 26 29 32 35 33 30 29 28 24 23 22 21 20 20 18 18 19
Wind_Direction_850mb
20 72 224 187 134 124 130 161 262 273 48 325 252 277 283 288 265 264 268 272 272 279 306 326 334 334 323 299 301 308 318 323 323 326 321 319 308 284 270 258 243 244 251 259
27 178 160 129 66 109 100 150 291 282 41 2 329 296 281 293 274 270 272 257 258 267 297 314 329 334 322 304 302 315 323 326 329 329 327 327 326 301 271 268 256 251 243 250
156 163 154 142 52 111 174 198 190 223 326 197 311 295 343 315 333 317 267 255 259 269 287 302 319 333 325 312 309 320 326 329 335 333 331 326 322 313 308 270 263 254 252 256
94 189 171 119 111 117 254 163 112 42 28 291 6 278 314 338 314 295 291 260 262 267 279 297 314 329 328 312 310 320 332 336 337 338 342 337 343 4 348 287 289 271 252 271
205 166 167 136 129 91 285 344 65 79 58 347 351 70 272 354 317 303 342 342 285 269 278 296 312 323 323 319 314 326 339 341 345 345 353 344 342 352 30 288 304 293 266 275
91 25 17 107 112 98 142 119 43 56 66 25 282 115 287 241 237 307 328 336 314 302 303 308 315 324 325 320 321 335 344 346 349 350 359 359 333 231 311 308 317 302 302 297
4 47 17 67 104 59 130 56 344 357 12 219 351 352 246 256 253 237 281 311 318 310 311 313 317 322 321 317 324 341 353 347 351 349 359 2 318 299 299 302 323 322 249 14
147 297 161 10 1 167 161 160 146 214 276 276 65 240 244 213 272 271 273 290 299 305 308 315 314 320 319 316 331 346 2 351 359 349 357 347 338 306 307 339 336 342 102 5
134 318 318 49 23 73 209 65 139 103 54 38 263 283 302 269 275 267 273 280 280 287 298 307 313 314 316 317 327 354 10 5 8 2 3 359 355 328 309 342 1 30 91 104
190 87 312 358 97 36 55 149 77 9 43 300 293 285 243 254 239 263 267 264 279 280 279 304 312 313 311 310 328 5 20 18 3 1 360 355 2 331 316 299 17 31 68 96
136 105 288 18 209 176 104 33 51 110 126 173 277 274 216 220 211 226 254 273 284 284 277 287 305 308 310 309 334 21 32 24 13 359 5 12 14 13 345 11 41 43 91 115
190 121 135 210 256 324 313 210 168 128 241 69 139 272 275 247 278 278 275 284 289 286 285 277 287 297 300 304 330 60 78 26 11 14 34 13 6 9 48 88 111 92 94 133
180 284 73 350 11 359 224 197 150 103 81 204 143 263 347 296 280 264 274 289 297 292 282 274 270 284 284 287 270 117 100 60 19 27 50 36 18 359 31 112 125 116 96 120
135 102 158 184 180 127 174 198 174 140 128 191 224 274 291 270 270 277 284 297 300 294 282 262 257 260 267 262 220 154 120 85 48 51 61 43 32 27 53 119 125 114 102 126
145 178 109 314 28 132 161 166 176 191 193 180 250 228 262 250 230 276 298 297 303 299 305 273 249 238 250 246 209 165 141 101 68 79 76 61 61 58 77 109 126 107 111 117
181 170 121 3 5 42 271 197 194 227 250 271 279 277 269 272 272 279 287 298 295 293 304 293 230 218 226 224 203 172 150 127 96 93 97 79 72 70 84 107 119 117 109 106
149 140 115 239 17 86 334 226 192 195 213 207 218 248 277 258 238 265 292 295 292 286 290 291 219 196 206 207 193 174 163 141 119 107 103 101 86 79 77 99 114 127 115 102
149 124 93 152 31 269 229 140 172 203 237 212 258 260 256 266 282 291 294 291 296 269 257 257 182 178 190 197 186 182 173 157 143 127 127 114 111 102 92 89 108 124 133 119
70 146 123 146 208 313 271 199 170 171 271 204 225 252 269 277 297 297 260 313 316 258 210 201 183 183 191 192 189 182 177 171 162 144 136 136 123 120 113 113 110 103 106 128
107 80 125 132 196 212 236 156 158 145 290 213 195 238 230 208 125 260 293 323 335 211 194 187 182 186 191 191 190 189 183 177 167 159 154 149 150 145 138 134 129 129 138 139
126 63 198 184 226 270 228 152 157 101 236 163 191 208 169 179 231 301 305 315 326 200 191 187 186 195 194 195 193 190 188 176 182 176 170 166 161 158 159 161 162 157 148 147
159 162 193 171 219 245 148 129 177 206 141 162 171 185 190 237 310 336 311 312 331 204 198 191 193 193 198 200 200 196 187 189 192 190 186 182 182 180 176 180 180 185 189 195
202 197 187 191 211 160 177 206 203 195 164 188 195 181 189 252 9 3 358 299 303 223 198 198 196 198 202 205 206 205 186 202 200 200 199 198 199 200 201 202 210 214 212 219
251 214 181 111 202 208 194 216 229 221 233 250 231 205 239 240 212 344 354 339 284 258 200 197 202 205 210 210 206 195 204 213 209 203 203 204 206 213 217 221 229 235 239 244
178 153 168 280 283 270 233 229 236 234 229 220 207 229 232 259 267 280 290 309 278 240 202 199 201 212 222 219 211 205 212 216 213 214 214 210 210 214 218 223 228 230 239 247
185 166 184 218 190 203 214 230 242 236 224 229 230 226 251 257 268 269 272 256 245 230 212 208 210 208 211 218 212 213 220 225 224 225 227 227 227 229 230 233 236 239 247 257